Regional Weather Roundup
Issued by NWS

Home | Current Version | Previous Version | Graphics & Text | Print | Product List | Glossary On
Versions: 1 2 3 4 5 6 7 8 9 10 11 12 13 14 15 16 17 18 19 20 21 22 23 24 25 26 27 28 29 30 31 32 33 34 35 36 37 38 39 40 41 42 43 44 45 46 47 48 49 50
443
ASUS43 KBIS 190910
RWRND

NORTH DAKOTA REGIONAL WEATHER ROUNDUP
NATIONAL WEATHER SERVICE BISMARCK ND
400 AM CDT THU APR 19 2018

NOTE: "FAIR" INDICATES FEW OR NO CLOUDS BELOW 12,000 FEET WITH NO
SIGNIFICANT WEATHER AND/OR OBSTRUCTIONS TO VISIBILITY.


NDZ001>003-009>011-017-191000-
NORTHWEST NORTH DAKOTA

CITY           SKY/WX    TMP DP  RH WIND       PRES   REMARKS
WILLISTON      CLOUDY    33  32  96 N7        30.36S FOG
MINOT          CLOUDY    36  33  89 NW7       30.34S
MINOT AFB      CLOUDY    35  34  97 NW8       30.33S
$$

NDZ018>021-031>035-040>046-191000-
SOUTHWEST NORTH DAKOTA

CITY           SKY/WX    TMP DP  RH WIND       PRES   REMARKS
BISMARCK       CLEAR     26  26 100 CALM      30.36S
DICKINSON      FOG       23  20  88 CALM      30.31R VSB 1/4
GARRISON         N/A     29  27  92 NW8       30.34S
HETTINGER ARPT CLEAR     24  21  88 CALM      30.33R
$$

NDZ004>008-012>016-024-026-027-054-191000-
NORTHEAST NORTH DAKOTA

CITY           SKY/WX    TMP DP  RH WIND       PRES   REMARKS
GRAND FORKS    FAIR      30  30 100 CALM      30.34R
GRND FRKS AFB  FAIR      30  29  96 CALM      30.34R
DEVILS LAKE    FAIR      31  26  82 W5        30.34R
$$

NDZ022-023-025-028>030-036>039-047>053-191000-
SOUTHEAST NORTH DAKOTA

CITY           SKY/WX    TMP DP  RH WIND       PRES   REMARKS
FARGO          FAIR      29  27  92 NW5       30.33R
JAMESTOWN      CLEAR     30  28  92 CALM      30.32S
$$





USA.gov is the U.S. government's official web portal to all federal, state and local government web resources and services.